Weather History for Mosinee, WI

Change the Weather History Date:

Wednesday, May 14, 2014

  Actual Average Record
Temperature  
Mean Temperature 45 °F -  
Max Temperature 55 °F 62 °F 84 °F (1998)
Min Temperature 35 °F 40 °F 30 °F (2000)
Degree Days  
Heating Degree Days 20    
Moisture  
Dew Point 33 °F    
Average Humidity 66    
Maximum Humidity 100    
Minimum Humidity 31    
Precipitation  
Precipitation 0.00 in - - ()
Sea Level Pressure  
Sea Level Pressure 30.14 in    
Wind  
Wind Speed 7 mph (WNW)    
Max Wind Speed 14 mph    
Max Gust Speed 18 mph    
Visibility 10 miles    
Events      
Averages and records for this station are not official NWS values.
T = Trace of Precipitation, MM = Missing Value Source: NWS Daily Summary

Daily Weather History Graph

Daily Weather History Graph

Search for Another Location

Airport:

Trip Planner

Search our weather history database for the weather conditions in past years. The results will help you decide how hot, cold, wet, or windy it might be!

Date:

Astronomy

May. 14, 2014 Rise Set
Actual Time 5:31 AM CDT 8:19 PM CDT
Civil Twilight 4:57 AM CDT 8:53 PM CDT
Nautical Twilight 4:14 AM CDT 9:36 PM CDT
Astronomical Twilight 3:24 AM CDT 10:26 PM CDT
Moon 8:23 PM CDT (5/14) 5:32 AM CDT (5/14)
Length of Visible Light 15h 55m
Length of Day
14h 47m
Full, 100% of the Moon is Illuminated
May 14
Full
May 14
Full
May 21
Last Quarter
May 28
New
Jun 5
First Quarter

Hourly Weather History & Observations

Time (CDT) Temp. Windchill Dew Point Humidity Pressure Visibility Wind Dir Wind Speed Gust Speed Precip Events Conditions
12:15 AM 42.8 °F 38.6 °F 37.4 °F 81% 30.13 in 10.0 mi West 6.9 mph - N/A   Clear
12:35 AM 42.8 °F 39.3 °F 37.4 °F 81% 30.13 in 10.0 mi West 5.8 mph - N/A   Clear
12:55 AM 42.8 °F 39.3 °F 37.4 °F 81% 30.14 in 10.0 mi West 5.8 mph - N/A   Clear
1:15 AM 41.0 °F 37.1 °F 37.4 °F 87% 30.14 in 10.0 mi West 5.8 mph - N/A   Clear
1:35 AM 41.0 °F 37.1 °F 37.4 °F 87% 30.14 in 10.0 mi West 5.8 mph - N/A   Clear
1:55 AM 41.0 °F 36.4 °F 37.4 °F 87% 30.14 in 10.0 mi West 6.9 mph - N/A   Clear
2:15 AM 41.0 °F 37.1 °F 37.4 °F 87% 30.14 in 10.0 mi West 5.8 mph - N/A   Clear
2:35 AM 41.0 °F 35.8 °F 37.4 °F 87% 30.14 in 10.0 mi West 8.1 mph - N/A   Clear
2:55 AM 41.0 °F 35.8 °F 37.4 °F 87% 30.14 in 10.0 mi West 8.1 mph - N/A   Clear
3:15 AM 41.0 °F 35.8 °F 37.4 °F 87% 30.14 in 10.0 mi West 8.1 mph - N/A   Clear
3:35 AM 39.2 °F 35.0 °F 35.6 °F 87% 30.14 in 10.0 mi West 5.8 mph - N/A   Clear
3:55 AM 37.4 °F 32.8 °F 35.6 °F 93% 30.15 in 10.0 mi West 5.8 mph - N/A   Clear
4:15 AM 37.4 °F 33.8 °F 35.6 °F 93% 30.15 in 10.0 mi West 4.6 mph - N/A   Clear
4:35 AM 37.4 °F 33.8 °F 35.6 °F 93% 30.15 in 10.0 mi West 4.6 mph - N/A   Clear
4:55 AM 35.6 °F 31.7 °F 35.6 °F 100% 30.15 in 10.0 mi West 4.6 mph - N/A   Clear
5:15 AM 37.4 °F 33.8 °F 35.6 °F 93% 30.16 in 10.0 mi West 4.6 mph - N/A   Clear
5:35 AM 37.4 °F 34.9 °F 35.6 °F 93% 30.17 in 10.0 mi West 3.5 mph - N/A   Clear
5:45 AM 37.4 °F 33.8 °F 35.6 °F 93% 30.17 in 10.0 mi West 4.6 mph - N/A   Clear
6:47 AM 39.2 °F 35.9 °F 37.4 °F 93% 30.19 in 10.0 mi West 4.6 mph - N/A   Clear
7:50 AM 44.6 °F 40.7 °F 37.4 °F 76% 30.20 in 10.0 mi WNW 6.9 mph - N/A   Clear
8:55 AM 46.4 °F 41.1 °F 37.4 °F 71% 30.21 in 10.0 mi NW 11.5 mph - N/A   Clear
9:45 AM 48.2 °F - 35.6 °F 62% 30.21 in 10.0 mi WNW 11.5 mph - N/A   Scattered Clouds
10:45 AM 51.8 °F - 33.8 °F 50% 30.20 in 10.0 mi WNW 13.8 mph 17.3 mph N/A   Scattered Clouds
12:47 PM 53.6 °F - 30.2 °F 41% 30.19 in 10.0 mi WNW 11.5 mph - N/A   Scattered Clouds
1:45 PM 55.4 °F - 30.2 °F 38% 30.16 in 10.0 mi WNW 10.4 mph 18.4 mph N/A   Scattered Clouds
2:45 PM 55.4 °F - 28.4 °F 36% 30.16 in 10.0 mi WNW 12.7 mph 17.3 mph N/A   Scattered Clouds
3:45 PM 55.4 °F - 28.4 °F 36% 30.14 in 10.0 mi WNW 5.8 mph - N/A   Scattered Clouds
4:45 PM 55.4 °F - 28.4 °F 36% 30.13 in 10.0 mi NW 9.2 mph - N/A   Scattered Clouds
5:45 PM 55.4 °F - 24.8 °F 31% 30.13 in 10.0 mi NNW 10.4 mph - N/A   Partly Cloudy
6:45 PM 53.6 °F - 26.6 °F 35% 30.11 in 10.0 mi NW 10.4 mph - N/A   Clear
7:45 PM 53.6 °F - 26.6 °F 35% 30.10 in 10.0 mi NNW 8.1 mph - N/A   Clear
8:45 PM 51.8 °F - 26.6 °F 38% 30.12 in 10.0 mi NNW 5.8 mph - N/A   Clear
9:45 PM 51.8 °F - 26.6 °F 38% 30.11 in 10.0 mi North 6.9 mph - N/A   Scattered Clouds
10:15 PM 50.0 °F - 28.4 °F 43% 30.11 in 10.0 mi North 6.9 mph - N/A   Scattered Clouds
10:35 PM 50.0 °F - 28.4 °F 43% 30.11 in 10.0 mi North 5.8 mph - N/A   Mostly Cloudy
10:55 PM 50.0 °F - 28.4 °F 43% 30.11 in 10.0 mi North 5.8 mph - N/A   Overcast
11:15 PM 50.0 °F - 28.4 °F 43% 30.11 in 10.0 mi North 8.1 mph - N/A   Overcast
11:35 PM 50.0 °F - 28.4 °F 43% 30.11 in 10.0 mi North 11.5 mph 17.3 mph N/A   Overcast
11:55 PM 48.2 °F - 30.2 °F 50% 30.10 in 10.0 mi NNE 12.7 mph 18.4 mph N/A   Scattered Clouds